Regional Weather Roundup
Issued by NWS Wakefield, VA

Home | Current Version | Previous Version | Graphics & Text | Print | Product List | Glossary On
Versions: 1 2 3 4 5 6 7 8 9 10 11 12 13 14 15 16 17 18 19 20 21 22 23 24 25 26 27 28 29 30 31 32 33 34 35 36 37 38 39 40 41 42 43 44 45 46 47 48 49 50
000
ASUS41 KAKQ 241514
RWRAKQ

REGIONAL WEATHER ROUNDUP
NATIONAL WEATHER SERVICE WAKEFIELD VA
1100 AM EDT SUN MAY 24 2015

Note: "fair" indicates few or no clouds below 12,000 feet with no
significant weather and/or obstructions to visibility. * = Denotes
station may not report precipitation (e.g., rain,snow,etc.),
thunder or fog.

VAZ042-051-052>054-056-241600-
NORTHERN VIRGINIA

CITY           SKY/WX    TMP DP  RH WIND       PRES   REMARKS
WASH NATIONAL  MOSUNNY   71  56  58 S8        30.38F
DULLES         PTSUNNY   69  54  58 CALM      30.37F
FORT BELVOIR   SUNNY     71  56  58 VRB2      30.37F
QUANTICO       MOSUNNY   69  57  65 S10       30.38F
FREDERICKSBRG* SUNNY     74  57  55 S7        30.37F
STAFFORD*      SUNNY     72  55  53 CALM      30.41F
WARRENTON      SUNNY     73  58  58 S5        30.37F
CULPEPER*      SUNNY     71  55  56 CALM      30.38F
MANASSAS*      SUNNY    N/A N/A N/A CALM      30.39S
LEESBURG*      SUNNY     72  57  60 CALM      30.37F
WINCHESTER     SUNNY     73  45  35 S3        30.36F
FRONT ROYAL*   FAIR      72  54  53 SW5       30.36F
LURAY*         FAIR      73  55  53 SW5       30.37F
$$

VAZ048-049-060>072-079>083-241600-
CENTRAL AND SOUTH CENTRAL VIRGINIA

CITY           SKY/WX    TMP DP  RH WIND       PRES   REMARKS
RICHMOND       MOSUNNY   75  57  53 SW10      30.40F
CHESTERFIELD*  NOT AVBL
PETERSBURG*    SUNNY     75  56  51 SW8       30.41F
HANOVER        SUNNY     74  57  55 S12       30.40F
TAPPAHANNOCK*  SUNNY     74  52  45 S7        30.40F
QUINTON*       FAIR      71  57  61 SW6       30.40F
CHARLOTTSVILLE SUNNY     72  54  53 VRB7      30.37F
GORDONSVILLE*  FAIR      71  54  55 S8        30.37F
ORANGE*        SUNNY     72  55  56 CALM      30.39F
LOUISA*        SUNNY     73  55  53 SW7       30.37F
BUMPASS*       FAIR      71  55  57 S5        30.38F
FARMVILLE*     SUNNY     75  55  49 SW9       30.38F
CREWE*         FAIR      74  55  51 SW8       30.40S
FORT PICKETT*  FAIR      73  57  56 SW12G20   30.40F
CHASE CITY*    FAIR      74  59  59 SW5       30.41F
CLARKSVILLE*   FAIR      73  57  56 SW10      30.41F
SOUTH HILL*    SUNNY     73  58  60 SW6       30.47F
LAWRENCEVILLE* FAIR      73  61  64 W7        30.41F
EMPORIA*       SUNNY     72  59  64 S5        30.43F
$$

VAZ088>098-241600-
SOUTHEAST VIRGINIA

CITY           SKY/WX    TMP DP  RH WIND       PRES   REMARKS
NORFOLK        MOSUNNY   75  49  39 VRB3      30.42F
VIRGINIA BEACH MOSUNNY   74  51  44 VRB5      30.42F
NORFOLK NAVAL  MOSUNNY   78  53  41 VRB5      30.43F
WEST POINT*    SUNNY     76  54  46 SW8       30.42F
SALUDA*        FAIR      72  56  58 SW9G16    30.40F
NEWPORT NEWS   SUNNY     76  54  46 SW7       30.41F
LANGLEY AFB    SUNNY     73  55  52 W5        30.40F
FORT EUSTIS    SUNNY     73  57  57 VRB6      30.39F
WILLIAMSBURG*  SUNNY     75  59  57 W6        30.42F
HR EXEC AP*    FAIR      75  57  53 W6        30.43F
FRANKLIN*      SUNNY     74  59  59 CALM      30.42F
WAKEFIELD      SUNNY     74  58  57 SW8       30.41F
$$

VAZ020-022-025-037-045-241600-
WEST CENTRAL AND SOUTHWEST VIRGINIA

CITY           SKY/WX    TMP DP  RH WIND       PRES   REMARKS
STAUNTON*      SUNNY     75  52  45 S6        30.39F
WAYNESBORO*    FAIR      72  51  48 SW6       30.38F
HOT SPRINGS VA SUNNY     64  46  52 W8        30.45S
LYNCHBURG      SUNNY     72  54  53 SW10      30.41F
DANVILLE       SUNNY     75  56  51 SW8       30.41F
SOUTH BOSTON*  FAIR      73  56  54 MISG      30.41F
MARTINSVILLE   SUNNY     74  56  54 SW6       30.44F
ROANOKE        SUNNY     71  51  49 SW7       30.41F
BLACKSBURG     SUNNY     68  52  56 S7        30.46S
DUBLIN*        SUNNY     72  50  45 SW9       30.43F
MARION*        SUNNY     71  50  48 NE3       30.44F
HILLSVILLE*    SUNNY     66  49  53 SW14      30.45F
RICHLANDS*     FAIR      70  42  37 SW3       30.41F
WISE*          SUNNY     72  43  35 S6        30.42S
ABINGDON*      SUNNY     74  48  40 CALM      30.40F
$$

MDZ021>025-VAZ099-100-241600-
SOUTHERN MARYLAND AND THE DELMARVA PENINSULA

CITY           SKY/WX    TMP DP  RH WIND       PRES   REMARKS
PATUXENT RIVER MOSUNNY   72  55  55 S7        30.39F
BAY BRIDGE APT   N/A    N/A N/A N/A S10       30.39F
LEONARDTOWN    SUNNY     70  52  52 SW10      30.40F
DOVER          MOSUNNY   72  58  62 SW8       30.36F
GEORGETOWN     MOSUNNY   71  49  45 SW10      30.41F
EASTON         MOSUNNY   73  52  46 SW10      30.42F
CAMBRIDGE      SUNNY     72  54  53 S8G18     30.39F
SALISBURY      MOSUNNY   71  49  45 SW9       30.41F
OCEAN CITY     SUNNY     67  51  56 S10       30.42F
WALLOPS ISLAND MOSUNNY   68  47  46 S13G21    30.43F
ACCOMACK*      SUNNY     72  14  11 S12       30.42F
$$

NCZ012>017-030>032-241600-
NORTH CENTRAL AND EASTERN NORTH CAROLINA

CITY           SKY/WX    TMP DP  RH WIND       PRES   REMARKS
ROANOKE RAPIDS FAIR      73  61  64 SW6       30.42F
RALEIGH        MOSUNNY   76  60  57 SW10      30.42F
ELIZABETH CITY SUNNY     73  56  54 VRB3      30.43F
AHOSKIE*       SUNNY     73  57  56 S3        30.42F
EDENTON*       SUNNY     74  59  60 S3        30.43F
CURRITUCK*     SUNNY     74  49  41 E5        30.43F
KILL DEVIL HLS SUNNY     71  48  43 SE6       30.43S
MANTEO         SUNNY     72  53  51 E8        30.44S
CAPE HATTERAS  MOSUNNY   76  56  49 SE7       30.43S
TARBORO*       FAIR      76  57  51 SW5       30.43S
GOLDSBORO      SUNNY     76  59  54 CALM      30.40S
WASHINGTON     SUNNY     75  59  57 SW5       30.42F
GREENVILLE     SUNNY     77  57  50 SW3       30.42S
NEW BERN       SUNNY     78  50  37 CALM      30.43S
WILMINGTON     SUNNY     78  56  46 E8        30.40S
$$

VAZ048-241600-
ELSEWHERE

CITY           SKY/WX    TMP DP  RH WIND       PRES   REMARKS
HARRISBURG PA  MOSUNNY   70  51  51 S3        30.35F
BALTIMORE      MOSUNNY   70  53  54 SW5       30.37F
ANNAPOLIS      SUNNY     66  54  65 SE13      30.37F
ANDREWS AFB    SUNNY     72  55  56 VRB3      30.37F
PHILADELPHIA   MOSUNNY   71  53  52 SW12      30.37F
HENDERSON NC   SUNNY     74  54  48 SW12G17   30.42F
GREENSBORO     MOSUNNY   72  55  55 SW12      30.42F
ROCKY MOUNT    SUNNY     77  59  53 SW8       30.42F
$$

VAZ100-241600-
MARINE

STATION/POSITION TIME  TEMP    WIND        PRES    WAVE   SWELL
                       AIR SEA DIR/SP/G            HT/PER HT/PER
                 (UTC) (F)     (DEG/KT/KT) (MB)    (FT/S) (FT/S)
BRANDYWINE LGT   1400   63 63  220/ 11/ 12 1030.0F
CAPE MAY NJ      1400   64 66  220/  8/  9 1029.8F
LEWES DE         1400   68 62  210/  9/ 13 1029.8F
15NM E FENWICK I 1450   60 59              1030.1F   1/ 3
OCEAN-CITY-INLET 1400   62 63  210/  8/ 10 1030.4S
WACHAPREAGUE VA  1400   67 67  210/  9/ 12 1030.7F
THOMAS POINT MD  1500   64 65  160/ 13/ 14 1029.3F
GOOSES REEF MD   1500   66 65  190/  6/  8 1029.8F   1/ 3
SOLOMONS ISLAND  1400      68                N/A
BISHOPS HEAD MD  1400   66 66  180/ 14/ 16 1029.5F
PINEY POINT MD   1400          230/  7/  8   N/A
CAMBRIDGE MD     1400   69 69  180/  8/ 12 1029.4F
LEWISETTA VA     1400   68 68              1029.4F
RAPPAHANNOCK LGT 1400          180/ 10/ 11 1030.9F
STINGRAY PT      1500   67 69  180/ 12/ 14 1029.4F   2/ 3
YORK RVR RNG VA  1400   68     200/  8/ 10 1029.9S
YORKTOWN VA      1400   70 70  200/  4/  7 1030.1S
JAMESTOWN VA     1500   70 73  220/  4/  6 1028.8F
DOMINION TERM VA 1400   68     220/  6/  7 1030.6R
KIPTOPEKE VA     1400      72  170/ 10/ 12   N/A
CHES BAY BRIDGE  1400   68 68  140/  5/  6 1030.2R
CAPE HENRY VA    1400   67     130/  9/ 12 1029.4R
CHESAPEAKE LGHT  1400   62     160/  9/ 10 1031.5R
WILLOUBY STN VA  1400   70     200/  6/  8 1031.2R
CAPE HENRY BUOY  1428      62                N/A     2/ 5
1ST LANDING BUOY 1500      67              1029.7F
CAPE CHARLES BUO 1426      66                N/A     2/ 3   2/ 6
OFFSHORE WE BUOY 1411      61                N/A     2/ 5   2/ 8
64NM E OF VA BCH 1450   64 62  120/  4/  6 1030.6F   2/ 7   2/ 7
DUCK PIER NC     1400   65 63  120/  7/  7 1029.8R
44100 DUCK FRF   1424      62                N/A     2/ 5
44056 DUCK FRF   1411      63                N/A     2/ 6
OREGON INLET NC  1400   67 67   70/  8/ 10 1030.7R
HATTERAS NC      1400   72 72  100/  5/  8 1029.9R
DIAMOND SHLS NC  1450   73 77   30/  4/  8 1030.4R   2/ 6   2/ 6
CAPE LOOKOUT NC  1500   74      50/  6/  7 1029.7S
$$



USA.gov is the U.S. government's official web portal to all federal, state and local government web resources and services.